GW7057 Weather Reports


time (UTC)temp
C
wind
direction
speed
KPH
gust
KPH
rain 1hr
cm
rain 24hr
cm
rain mn
cm
humidity
%
barometer
mb
20260507104559 7 307 0.0 3.2 0.00 0.23 0.23 97 1005.5
20260507104055 7 352 0.0 3.2 0.00 0.23 0.23 97 1005.4
20260507103551 7 355 0.0 3.2 0.00 0.23 0.23 97 1005.4
20260507103048 7 141 0.0 3.2 0.00 0.23 0.23 97 1005.4
20260507102545 7 315 1.6 4.8 0.00 0.23 0.23 97 1005.7
20260507102041 7 59 1.6 3.2 0.00 0.23 0.23 97 1005.2
20260507101537 7 74 0.0 3.2 0.00 0.23 0.23 97 1005.4
20260507101033 7 55 0.0 3.2 0.00 0.23 0.23 97 1005.6
20260507100531 7 201 1.6 3.2 0.00 0.23 0.23 97 1005.6
20260507100029 7 329 0.0 3.2 0.00 0.23 0.23 97 1005.4
20260507095526 7 229 3.2 3.2 0.00 0.23 0.23 96 1005.2
20260507095023 7 265 1.6 3.2 0.00 0.23 0.23 96 1005.4
20260507094519 7 151 0.0 3.2 0.05 0.23 0.23 96 1004.9
20260507094016 7 336 1.6 3.2 0.05 0.23 0.23 96 1005.1
20260507093514 8 299 3.2 3.2 0.00 0.20 0.20 96 1005.1
20260507093012 8 55 0.0 3.2 0.00 0.20 0.20 96 1005.0
20260507092508 8 332 3.2 6.4 0.00 0.20 0.20 96 1005.0
20260507092005 8 231 3.2 8.0 0.00 0.20 0.20 97 1004.9
20260507091502 8 71 0.0 4.8 0.05 0.20 0.20 97 1004.9
20260507090957 8 246 3.2 6.4 0.13 0.20 0.20 97 1005.0
20260507090453 8 273 3.2 4.8 0.13 0.20 0.20 97 1005.1
20260507085950 8 32 0.0 3.2 0.05 0.18 0.18 97 1005.1
20260507085448 8 253 0.0 1.6 0.05 0.18 0.18 97 1005.3
20260507084944 8 17 1.6 6.4 0.18 0.18 0.18 97 1005.0
20260507084441 8 57 0.0 3.2 0.30 0.18 0.18 97 1005.0
20260507083938 8 43 1.6 3.2 0.18 0.15 0.15 96 1005.2
20260507083434 8 57 0.0 3.2 0.13 0.13 0.13 96 1005.4
20260507082931 8 64 0.0 3.2 0.13 0.10 0.10 96 1005.6
20260507082427 8 248 3.2 3.2 0.13 0.10 0.10 96 1005.4
20260507081924 8 287 0.0 4.8 0.05 0.10 0.10 96 1005.4
20260507081420 8 170 1.6 6.4 0.00 0.08 0.08 96 1005.2
20260507080917 8 220 3.2 4.8 0.00 0.08 0.08 96 1005.3
20260507080413 8 214 0.0 6.4 0.00 0.08 0.08 96 1005.6
20260507075908 9 211 0.0 4.8 0.05 0.08 0.08 96 1005.5
20260507075405 9 311 3.2 3.2 0.13 0.08 0.08 96 1005.3
20260507074901 9 251 3.2 4.8 0.05 0.08 0.08 96 1005.0
20260507074358 9 256 0.0 3.2 0.05 0.05 0.05 96 1004.9
20260507073856 9 267 0.0 3.2 0.05 0.05 0.05 96 1005.2
20260507073352 9 277 3.2 3.2 0.00 0.05 0.05 95 1005.0
20260507072849 9 147 0.0 4.8 0.00 0.05 0.05 95 1005.2
20260507072347 9 155 1.6 3.2 0.00 0.05 0.05 95 1004.8
20260507071844 9 10 0.0 3.2 0.00 0.05 0.05 95 1005.2
20260507071341 9 206 1.6 9.7 0.05 0.05 0.05 94 1005.2
20260507070837 9 262 3.2 4.8 0.13 0.05 0.05 94 1005.1
20260507070335 10 156 1.6 4.8 0.13 0.05 0.05 94 1005.0
20260507065831 10 285 4.8 9.7 0.05 0.03 0.03 93 1004.7
20260507065328 10 354 3.2 6.4 0.00 0.03 0.03 93 1004.8
20260507064825 10 80 0.0 3.2 0.00 0.03 0.03 93 1004.7
20260507064324 10 26 1.6 4.8 0.00 0.03 0.03 93 1004.4
20260507063821 10 69 0.0 3.2 0.00 0.03 0.03 93 1004.2
20260507063318 10 58 1.6 6.4 0.00 0.03 0.03 93 1004.3
20260507062815 10 226 3.2 4.8 0.00 0.03 0.03 93 1004.1
20260507062312 10 224 0.0 4.8 0.00 0.03 0.03 93 1004.3
20260507061810 10 189 3.2 4.8 0.00 0.03 0.03 93 1004.3
20260507061308 10 34 0.0 4.8 0.00 0.03 0.03 94 1004.3
20260507060806 10 16 0.0 6.4 0.00 0.03 0.03 94 1004.6
20260507060302 10 4 0.0 3.2 0.00 0.03 0.03 94 1004.9
20260507055758 10 76 3.2 3.2 0.00 0.03 0.03 94 1004.8
20260507055254 10 128 0.0 4.8 0.00 0.03 0.03 94 1004.8
20260507054750 10 253 3.2 3.2 0.00 0.03 0.03 94 1004.6
20260507054247 10 328 1.6 4.8 0.00 0.03 0.03 94 1004.7
20260507053744 10 302 3.2 14.5 0.00 0.03 0.03 94 1004.8
20260507053242 10 345 0.0 3.2 0.00 0.03 0.03 94 1004.7
20260507052741 10 304 1.6 3.2 0.00 0.03 0.03 94 1004.9
20260507052237 10 338 1.6 6.4 0.00 0.03 0.03 94 1004.9
20260507051735 10 265 3.2 3.2 0.00 0.03 0.03 95 1004.9
20260507051231 10 13 0.0 3.2 0.00 0.03 0.03 94 1005.1
20260507050728 10 223 0.0 4.8 0.00 0.03 0.03 95 1005.3
20260507050225 10 181 1.6 6.4 0.00 0.03 0.03 95 1005.3
20260507045722 10 346 3.2 3.2 0.00 0.03 0.03 95 1005.0
20260507045218 10 244 3.2 9.7 0.00 0.03 0.03 95 1004.8
20260507044716 10 214 3.2 4.8 0.00 0.03 0.03 95 1005.2
20260507044212 11 259 3.2 3.2 0.00 0.03 0.03 95 1004.9
20260507043708 11 5 1.6 3.2 0.00 0.03 0.03 95 1004.9
20260507043205 11 212 0.0 3.2 0.00 0.03 0.03 95 1004.8
20260507042701 11 235 0.0 3.2 0.05 0.03 0.03 94 1005.0
20260507042156 11 319 3.2 6.4 0.05 0.03 0.03 94 1005.1
20260507041654 11 264 6.4 6.4 0.00 0.00 0.00 94 1005.1
20260507041150 11 266 3.2 6.4 0.05 0.00 0.00 95 1005.5
20260507040647 11 243 3.2 6.4 0.05 0.00 0.00 95 1005.1
20260507040144 11 337 3.2 6.4 0.00 0.00 0.00 94 1004.8
20260507035639 12 302 4.8 9.7 0.00 0.58 0.58 94 1005.0
20260507035136 12 49 3.2 8.0 0.00 0.58 0.58 95 1004.7
20260507034633 12 285 6.4 6.4 0.05 0.58 0.58 94 1005.1
20260507034130 12 245 0.0 4.8 0.05 0.58 0.58 94 1005.3
20260507033629 12 291 3.2 6.4 0.00 0.56 0.56 94 1005.1
20260507033125 12 259 3.2 4.8 0.00 0.56 0.56 94 1005.1
20260507032623 12 220 3.2 6.4 0.00 0.56 0.56 94 1005.2
20260507032119 12 236 3.2 8.0 0.00 0.56 0.56 94 1005.0
20260507031615 12 209 3.2 8.0 0.00 0.56 0.56 93 1005.1
20260507031112 12 199 9.7 9.7 0.00 0.56 0.56 93 1005.1
20260507030609 13 261 3.2 8.0 0.00 0.56 0.56 93 1004.9
20260507030107 13 152 8.0 16.1 0.00 0.56 0.56 94 1004.9
20260507025604 13 248 3.2 11.3 0.05 0.56 0.56 93 1005.0
20260507025100 13 193 3.2 11.3 0.05 0.56 0.56 94 1004.7
20260507024559 13 222 6.4 12.9 0.00 0.56 0.56 95 1004.6
20260507024055 14 315 0.0 3.2 0.00 0.56 0.56 95 1004.5
20260507023551 14 230 6.4 12.9 0.00 0.56 0.56 95 1004.7
20260507023049 14 180 3.2 9.7 0.00 0.56 0.56 96 1004.6
20260507022545 14 212 6.4 6.4 0.00 0.56 0.56 96 1004.5
20260507022040 14 230 4.8 6.4 0.00 0.56 0.56 96 1004.4
20260507021537 14 237 6.4 12.9 0.00 0.56 0.56 96 1004.6
20260507021033 14 279 3.2 12.9 0.00 0.56 0.56 96 1004.0
20260507020531 14 225 3.2 8.0 0.00 0.56 0.56 96 1004.0
20260507020027 14 270 1.6 6.4 0.00 0.56 0.56 96 1004.2
20260507015526 14 330 3.2 14.5 0.00 0.56 0.56 96 1004.3
20260507015023 14 228 6.4 9.7 0.00 0.56 0.56 96 1004.5
20260507014519 14 204 6.4 12.9 0.00 0.56 0.56 97 1004.4
20260507014015 13 216 4.8 9.7 0.00 0.56 0.56 96 1004.1
20260507013512 13 234 8.0 9.7 0.00 0.56 0.56 97 1004.2
20260507013009 13 235 6.4 12.9 0.00 0.56 0.56 96 1004.3
20260507012506 13 222 8.0 14.5 0.00 0.56 0.56 97 1004.3
20260507012003 13 232 9.7 19.3 0.00 0.56 0.56 97 1004.2
20260507011500 13 251 6.4 6.4 0.00 0.56 0.56 96 1004.1
20260507010955 13 228 3.2 9.7 0.00 0.56 0.56 96 1003.9
20260507010450 13 153 6.4 9.7 0.00 0.56 0.56 96 1003.7
20260507005947 13 212 4.8 11.3 0.00 0.56 0.56 96 1004.0
20260507005445 13 232 8.0 16.1 0.00 0.56 0.56 96 1004.2
20260507004941 13 216 9.7 11.3 0.00 0.56 0.56 96 1004.3
20260507004438 13 210 3.2 14.5 0.00 0.56 0.56 96 1004.4
20260507003936 13 229 8.0 11.3 0.00 0.56 0.56 96 1004.3
20260507003430 13 236 12.9 19.3 0.00 0.56 0.56 96 1004.2
20260507002926 13 256 8.0 12.9 0.00 0.56 0.56 96 1004.0
20260507002422 13 219 3.2 8.0 0.00 0.56 0.56 96 1004.4
20260507001919 13 90 3.2 14.5 0.00 0.56 0.56 96 1004.3
20260507001416 13 305 3.2 20.9 0.00 0.56 0.56 96 1004.3
20260507000914 13 243 6.4 22.5 0.00 0.56 0.56 96 1004.2
20260507000409 13 307 3.2 9.7 0.00 0.56 0.56 96 1004.2
20260506235905 13 216 9.7 17.7 0.00 0.56 0.56 95 1004.1
20260506235402 13 232 6.4 17.7 0.00 0.56 0.56 95 1004.1
20260506234858 13 229 9.7 17.7 0.00 0.56 0.56 95 1004.2
20260506234356 13 218 8.0 12.9 0.00 0.56 0.56 95 1004.0
20260506233853 13 248 3.2 11.3 0.00 0.56 0.56 95 1003.8
20260506233349 13 184 3.2 16.1 0.00 0.56 0.56 95 1003.8
20260506232846 13 322 3.2 11.3 0.00 0.56 0.56 95 1003.9
20260506232342 13 220 6.4 9.7 0.00 0.56 0.56 95 1003.8
20260506231838 13 238 4.8 11.3 0.00 0.56 0.56 95 1003.8
20260506231336 13 186 1.6 9.7 0.00 0.56 0.56 95 1003.8
20260506230833 13 220 6.4 9.7 0.00 0.56 0.56 95 1004.0
20260506230330 13 146 4.8 8.0 0.00 0.56 0.56 95 1003.8
20260506225826 13 216 1.6 6.4 0.05 0.56 0.56 95 1003.6
20260506225324 13 205 3.2 8.0 0.13 0.56 0.56 95 1003.5
20260506224820 13 195 6.4 11.3 0.05 0.53 0.53 95 1003.6
20260506224318 13 237 9.7 9.7 0.05 0.53 0.53 95 1003.7
20260506223814 14 135 3.2 9.7 0.13 0.53 0.53 95 1003.9
20260506223309 13 231 14.5 16.1 0.18 0.53 0.53 95 1003.8
20260506222807 13 223 4.8 12.9 0.18 0.51 0.51 95 1003.7
20260506222305 13 225 8.0 9.7 0.23 0.51 0.51 95 1003.6
20260506221800 13 119 3.2 12.9 0.18 0.48 0.48 95 1003.6
20260506221258 13 213 6.4 9.7 0.05 0.46 0.46 95 1003.7
20260506220756 14 117 3.2 6.4 0.00 0.46 0.46 95 1003.9
20260506220255 14 150 6.4 9.7 0.00 0.46 0.46 95 1003.9
20260506215753 14 155 0.0 8.0 0.00 0.46 0.46 95 1003.8
20260506215248 14 49 1.6 8.0 0.05 0.46 0.46 95 1003.9
20260506214744 14 196 3.2 9.7 0.00 0.43 0.43 95 1003.9
20260506214242 14 128 3.2 8.0 0.00 0.43 0.43 95 1003.8
20260506213740 14 115 4.8 12.9 0.05 0.43 0.43 94 1004.0
20260506213237 14 261 4.8 8.0 0.13 0.43 0.43 94 1004.0
20260506212734 14 159 6.4 9.7 0.13 0.43 0.43 94 1004.2
20260506212230 14 170 4.8 6.4 0.18 0.43 0.43 94 1004.1
20260506211725 14 154 3.2 6.4 0.18 0.41 0.41 94 1004.0
20260506211221 14 81 3.2 11.3 0.18 0.38 0.38 94 1004.3
20260506210719 14 136 8.0 8.0 0.05 0.38 0.38 94 1004.3
20260506210216 14 217 4.8 8.0 0.13 0.36 0.36 93 1004.3
20260506205713 14 200 6.4 11.3 0.13 0.36 0.36 93 1004.6
20260506205213 14 134 3.2 9.7 0.05 0.33 0.33 93 1004.3
20260506204711 14 248 4.8 19.3 0.05 0.33 0.33 93 1004.4
20260506204208 14 165 4.8 6.4 0.00 0.33 0.33 93 1004.5
20260506203706 14 134 4.8 11.3 0.00 0.33 0.33 92 1004.5
20260506203203 14 154 8.0 9.7 0.00 0.33 0.33 92 1004.5
20260506202701 14 133 3.2 6.4 0.00 0.33 0.33 93 1004.7
20260506202156 14 140 12.9 14.5 0.00 0.33 0.33 93 1004.4
20260506201654 14 135 4.8 12.9 0.00 0.33 0.33 92 1004.6
20260506201150 14 227 6.4 8.0 0.05 0.33 0.33 92 1004.8
20260506200647 14 202 4.8 9.7 0.00 0.30 0.30 92 1004.6
20260506200144 14 172 4.8 12.9 0.00 0.30 0.30 92 1004.7
20260506195640 14 165 4.8 20.9 0.00 0.30 0.30 92 1004.7
20260506195137 14 153 4.8 12.9 0.00 0.30 0.30 92 1004.7
20260506194634 14 133 4.8 11.3 0.00 0.30 0.30 92 1004.8
20260506194130 14 235 4.8 9.7 0.00 0.30 0.30 92 1005.0
20260506193628 14 159 11.3 22.5 0.00 0.30 0.30 92 1005.1
20260506193125 14 195 9.7 12.9 0.00 0.30 0.30 92 1005.0
20260506192622 14 116 4.8 14.5 0.00 0.30 0.30 92 1005.0
20260506192118 14 171 3.2 16.1 0.05 0.30 0.30 92 1004.9
20260506191615 14 211 3.2 6.4 0.05 0.30 0.30 92 1005.0
20260506191110 14 303 3.2 9.7 0.05 0.30 0.30 92 1005.1
20260506190609 14 146 3.2 8.0 0.18 0.30 0.30 92 1005.1
20260506190105 14 124 14.5 17.7 0.13 0.28 0.28 92 1005.2
20260506185602 14 179 3.2 8.0 0.13 0.28 0.28 92 1005.3
20260506185058 14 162 4.8 9.7 0.13 0.25 0.25 92 1005.2
20260506184556 14 98 3.2 12.9 0.13 0.25 0.25 92 1005.0
20260506184053 15 113 6.4 14.5 0.18 0.23 0.23 91 1005.0
20260506183549 15 119 6.4 12.9 0.23 0.23 0.23 91 1005.0
20260506183046 15 73 0.0 8.0 0.36 0.20 0.20 90 1005.2
20260506182543 15 150 12.9 12.9 0.36 0.18 0.18 89 1005.4
20260506182040 15 126 4.8 6.4 0.30 0.15 0.15 89 1005.5
20260506181538 15 143 3.2 8.0 0.23 0.13 0.13 87 1005.5
20260506181035 15 302 3.2 8.0 0.18 0.10 0.10 86 1005.7
20260506180531 16 140 3.2 6.4 0.18 0.08 0.08 86 1005.8
20260506180028 16 137 6.4 14.5 0.13 0.08 0.08 84 1006.2
20260506175525 16 149 4.8 8.0 0.05 0.05 0.05 84 1006.1
20260506175021 16 231 6.4 12.9 0.13 0.05 0.05 83 1005.9
20260506174520 16 123 3.2 17.7 0.13 0.05 0.05 81 1006.2
20260506174015 16 226 16.1 19.3 0.13 0.03 0.03 79 1006.2
20260506173513 17 161 8.0 19.3 0.13 0.03 0.03 77 1006.4
20260506173010 17 157 0.0 14.5 0.00 0.00 0.00 75 1006.6
20260506172508 18 217 8.0 27.4 0.00 0.00 0.00 71 1006.3
20260506172003 18 152 11.3 24.1 0.00 0.00 0.00 67 1006.1
20260506171501 18 357 6.4 25.7 0.00 0.00 0.00 65 1006.2
20260506170958 19 160 9.7 19.3 0.00 0.00 0.00 64 1005.9
20260506170455 19 163 4.8 12.9 0.00 0.00 0.00 63 1005.9
20260506165953 20 122 4.8 14.5 0.00 0.00 0.00 63 1005.9
20260506165452 20 191 6.4 14.5 0.00 0.00 0.00 62 1005.9
20260506164947 20 198 8.0 11.3 0.00 0.00 0.00 62 1005.9
20260506164444 20 235 19.3 22.5 0.00 0.00 0.00 61 1006.1
20260506163942 20 178 6.4 19.3 0.00 0.00 0.00 61 1005.9
20260506163437 20 214 12.9 20.9 0.00 0.00 0.00 60 1005.9
20260506162932 20 263 3.2 22.5 0.00 0.00 0.00 60 1005.8
20260506162430 20 244 11.3 12.9 0.00 0.00 0.00 60 1006.1
20260506161927 20 225 8.0 16.1 0.00 0.00 0.00 60 1006.3
20260506161425 20 149 20.9 24.1 0.00 0.00 0.00 60 1006.3
20260506160922 20 131 9.7 12.9 0.00 0.00 0.00 60 1006.6
20260506160419 20 130 3.2 11.3 0.00 0.00 0.00 60 1006.5
20260506155917 20 181 8.0 11.3 0.00 0.00 0.00 58 1006.4
20260506155414 20 180 6.4 14.5 0.00 0.00 0.00 58 1006.5
20260506153531 20 195 4.8 22.5 0.00 0.00 0.00 59 1006.6
20260506153028 20 186 8.0 19.3 0.00 0.00 0.00 59 1006.6
20260506152525 20 214 4.8 27.4 0.00 0.00 0.00 59 1006.8
20260506152023 20 156 6.4 20.9 0.00 0.00 0.00 60 1006.8
20260506151520 20 298 4.8 20.9 0.00 0.00 0.00 61 1006.7
20260506151018 20 18 1.6 22.5 0.00 0.00 0.00 61 1007.0
20260506150514 20 170 6.4 9.7 0.00 0.00 0.00 62 1007.0
20260506150011 20 173 4.8 12.9 0.00 0.00 0.00 63 1007.0
20260506145507 20 134 9.7 20.9 0.00 0.00 0.00 62 1007.0
20260506145005 20 236 3.2 19.3 0.00 0.00 0.00 62 1006.9
20260506144501 19 194 9.7 20.9 0.00 0.00 0.00 63 1007.3
20260506143959 19 148 12.9 14.5 0.00 0.00 0.00 64 1007.4
20260506143456 18 223 8.0 17.7 0.00 0.00 0.00 66 1007.3
20260506142955 18 133 8.0 17.7 0.00 0.00 0.00 66 1007.3
20260506142452 18 151 3.2 11.3 0.00 0.00 0.00 66 1007.3
20260506141950 18 198 9.7 17.7 0.00 0.00 0.00 66 1007.2
20260506141447 18 239 3.2 11.3 0.00 0.00 0.00 67 1007.3
20260506140946 18 221 4.8 11.3 0.00 0.00 0.00 67 1007.2
20260506140442 18 229 9.7 12.9 0.00 0.00 0.00 67 1007.2
20260506135939 18 164 3.2 9.7 0.00 0.00 0.00 68 1007.0
20260506135437 18 257 4.8 20.9 0.00 0.00 0.00 68 1006.9
20260506134932 18 225 6.4 20.9 0.00 0.00 0.00 68 1006.9
20260506134429 18 147 6.4 17.7 0.00 0.00 0.00 68 1006.8
20260506133926 18 166 6.4 14.5 0.00 0.00 0.00 69 1007.0
20260506133423 18 231 8.0 19.3 0.00 0.00 0.00 70 1007.1
20260506132920 18 243 3.2 14.5 0.00 0.00 0.00 70 1007.1
20260506132416 18 222 8.0 24.1 0.00 0.00 0.00 71 1007.2
20260506131914 17 341 3.2 9.7 0.00 0.00 0.00 72 1007.2
20260506131410 17 157 11.3 11.3 0.00 0.00 0.00 73 1007.2
20260506130908 17 216 6.4 19.3 0.00 0.00 0.00 73 1007.3
20260506130404 17 192 1.6 16.1 0.00 0.00 0.00 75 1007.6
20260506125902 16 208 3.2 8.0 0.00 0.00 0.00 76 1007.8
20260506125400 16 198 6.4 20.9 0.00 0.00 0.00 76 1007.7
20260506124858 16 214 4.8 8.0 0.00 0.00 0.00 77 1007.6
20260506124355 16 158 4.8 8.0 0.00 0.00 0.00 77 1007.7
20260506123853 16 180 4.8 8.0 0.00 0.00 0.00 78 1007.8
20260506123351 16 178 3.2 16.1 0.00 0.00 0.00 78 1007.6
20260506122848 16 159 4.8 19.3 0.00 0.00 0.00 78 1007.5
20260506122344 16 258 8.0 19.3 0.00 0.00 0.00 78 1007.8
20260506121843 16 144 8.0 17.7 0.00 0.00 0.00 77 1007.7
20260506121339 16 137 4.8 14.5 0.00 0.00 0.00 78 1007.5
20260506120837 16 139 0.0 6.4 0.00 0.00 0.00 80 1007.9
20260506120334 15 132 8.0 14.5 0.00 0.00 0.00 79 1008.0
20260506115831 15 143 4.8 11.3 0.00 0.00 0.00 79 1008.0
20260506115330 15 126 9.7 16.1 0.00 0.00 0.00 79 1007.6
20260506114827 15 195 4.8 16.1 0.00 0.00 0.00 79 1007.7
20260506114325 15 231 6.4 17.7 0.00 0.00 0.00 80 1007.5
20260506113823 15 152 16.1 19.3 0.00 0.00 0.00 81 1007.6
20260506113320 15 209 1.6 16.1 0.00 0.00 0.00 81 1007.7
20260506112817 15 250 4.8 14.5 0.00 0.00 0.00 82 1007.9
20260506112314 14 207 3.2 16.1 0.00 0.00 0.00 83 1007.9
20260506111811 14 197 9.7 14.5 0.00 0.00 0.00 84 1007.9
20260506111309 14 247 4.8 6.4 0.00 0.00 0.00 84 1007.9
20260506110807 14 153 11.3 17.7 0.00 0.00 0.00 83 1008.2
20260506110304 14 124 6.4 11.3 0.00 0.00 0.00 83 1008.3
20260506105800 14 214 8.0 20.9 0.00 0.00 0.00 83 1008.3
20260506105257 14 144 6.4 12.9 0.00 0.00 0.00 83 1007.9
20260506104755 14 145 6.4 14.5 0.00 0.00 0.00 83 1007.9